This is the latest recevied weather packets stored in our database for station/object VK4ZPK-13. If no packets are shown the sender has not sent any weather packets the latest 10 day(s).
| Time | Temp. | Humidity | Pressure | Rain* | Wind** | Luminosity | Snow |
|---|---|---|---|---|---|---|---|
| 1777941746 | 25° C | 80% | 1013.5 hPa | 0 mm | - | - | - |
| 1777939946 | 25° C | 86% | 1013.6 hPa | 0 mm | - | - | - |
| 1777938146 | 23.89° C | 88% | 1013.6 hPa | 0 mm | - | - | - |
| 1777936346 | 23.89° C | 90% | 1013.9 hPa | 0 mm | - | - | - |
| 1777934546 | 23.33° C | 94% | 1013.9 hPa | 0 mm | - | - | - |
| 1777932746 | 22.22° C | 97% | 1013.8 hPa | 0 mm | - | - | - |
| 1777930946 | 20.56° C | 98% | 1013.7 hPa | 0 mm | - | - | - |
| 1777929146 | 19.44° C | 98% | 1013.4 hPa | 0 mm | - | - | - |
| 1777927346 | 18.89° C | 97% | 1013.3 hPa | 0 mm | - | - | - |
| 1777925546 | 18.89° C | 97% | 1013 hPa | 0 mm | - | - | - |
| 1777923746 | 18.89° C | 97% | 1012.7 hPa | 0 mm | - | - | - |
| 1777921946 | 18.89° C | 96% | 1012.4 hPa | 0 mm | - | - | - |
| 1777920146 | 18.89° C | 96% | 1012 hPa | 0 mm | - | - | - |
| 1777918346 | 18.89° C | 96% | 1012 hPa | 0 mm | - | - | - |
| 1777916546 | 18.89° C | 96% | 1012 hPa | 0 mm | - | - | - |
| 1777914746 | 18.89° C | 96% | 1012.2 hPa | 0 mm | - | - | - |
| 1777912946 | 19.44° C | 95% | 1012.2 hPa | 0 mm | - | - | - |
| 1777911146 | 19.44° C | 95% | 1012.5 hPa | 0 mm | - | - | - |
| 1777909346 | 19.44° C | 95% | 1012.6 hPa | 0 mm | - | - | - |
| 1777907546 | 20° C | 94% | 1012.8 hPa | 0 mm | - | - | - |
| 1777905746 | 20° C | 94% | 1013 hPa | 0 mm | - | - | - |
| 1777903946 | 20° C | 93% | 1013.2 hPa | 0 mm | - | - | - |
| 1777902146 | 20.56° C | 93% | 1013.4 hPa | 0 mm | - | - | - |
| 1777900346 | 20.56° C | 93% | 1013.5 hPa | 0 mm | - | - | - |
| 1777898546 | 20.56° C | 92% | 1013.7 hPa | 0 mm | - | - | - |
* Rain latest hour (hover to see other rain measurements)
** Current wind speed in m/s (hover to see current wind gust speed)